Regional Weather Roundup
Issued by NWS

Home | Current Version | Previous Version | Graphics & Text | Print | Product List | Glossary On
Versions: 1 2 3 4 5 6 7 8 9 10 11 12 13 14 15 16 17 18 19 20 21 22 23 24 25 26 27 28 29 30 31 32 33 34 35 36 37 38 39 40 41 42 43 44 45 46 47 48 49 50
000
ASUS45 KCYS 012310
RWRWY

WYOMING REGIONAL WEATHER ROUNDUP
NATIONAL WEATHER SERVICE CHEYENNE WY
500 PM MDT WED APR 01 2015

NOTE:  "FAIR" INDICATES FEW OR NO CLOUDS BELOW 12,000 FEET
WITH NO SIGNIFICANT WEATHER AND/OR OBSTRUCTIONS TO VISIBILITY.

WYZ001-020000-
YELLOWSTONE NATIONAL PARK

CITY           SKY/WX    TMP DP  RH WIND       PRES   REMARKS
LK YELLOWSTONE   N/A     28  10  46 W8G20     29.95S WCI  20
W YELLOWSTONE  NOT AVBL

$$
WYZ002>013-054>058-071-098>099-020000-
NORTHERN WYOMING

CITY           SKY/WX    TMP DP  RH WIND       PRES   REMARKS
JACKSON        PTSUNNY   37  18  44 S9        29.97R WCI  31
CODY           FAIR      43  12  28 W20G32    29.90S
GREYBULL       FAIR      54   7  15 W16G28    29.85S
WORLAND        PTSUNNY   50   7  17 W9G18     29.85S
SHERIDAN       CLOUDY    49  12  22 NW15G26   29.85R
BUFFALO        CLOUDY    43  13  29 N16G25    29.87R
GILLETTE       CLOUDY    47  11  23 NW20G30   29.84R
HULETT         MOCLDY    50   7  17 NW13G28   29.83R
NEWCASTLE      FAIR      48  19  32 NW20G26   29.84S

$$
WYZ014>020-022>026-101>103-020000-
CENTRAL WYOMING

CITY           SKY/WX    TMP DP  RH WIND       PRES   REMARKS
BIG PINEY      FAIR      41   5  22 NW15G25   29.97S
PINEDALE       FAIR      37   9  30 W24       29.96F WCI  26
DUBOIS         FAIR      34   9  35 NW18G29   29.89S WCI  23
LANDER         NOT AVBL
RIVERTON       PTSUNNY   52   7  16 NW16G29   29.87R
CASPER         FAIR      52  22  30 NW10      29.82F
DOUGLAS        FAIR      48  28  46 N15       29.85S

$$
WYZ021-027>030-104>119-020000-
SOUTHERN WYOMING

CITY           SKY/WX    TMP DP  RH WIND       PRES   REMARKS
EVANSTON       FAIR      41   5  22 W14G21    30.00F
KEMMERER       FAIR      39   3  22 W22G30    29.98S WCI  29
FORT BRIDGER   FAIR      46   4  18 W20G25    30.00F
ROCK SPRINGS   FAIR      45   1  16 W20G30    29.95S
DIXON          FAIR      53   7  15 NW18G25   29.93R
RAWLINS        FAIR      48  -1  13 W29G36    29.89S
SARATOGA       FAIR      50   3  14 MISG      29.90S
LARAMIE        FAIR      50  11  20 W23G33    29.85S
CHEYENNE       FAIR      56  21  25 NW17G30   29.79R
TORRINGTON     FAIR      53  29  39 N21G35    29.78R
PINE BLUFFS    MOCLDY    59  21  23 NW18G28   29.77R

$$


USA.gov is the U.S. government's official web portal to all federal, state and local government web resources and services.